N5ZP Weather Reports


Display with metric or nautical units.
time (UTC)temp
F
wind
direction
speed
MPH
gust
MPH
rain 1hr
in
rain 24hr
in
rain mn
in
humidity
%
barometer
mb
20260506062108 58 344 4.0 7.0 0.00 0.00 0.00 79 1007.0
20260506061604 58 348 3.0 6.0 0.00 0.00 0.00 80 1007.3
20260506061102 59 103 2.0 4.0 0.00 0.00 0.00 80 1007.4
20260506060600 59 265 2.0 4.0 0.00 0.00 0.00 80 1007.2
20260506051028 60 17 3.0 4.0 0.00 0.00 0.00 78 1007.5
20260506050526 60 343 3.0 11.0 0.00 0.00 0.00 78 1007.5
20260506045017 61 12 5.0 10.0 0.00 0.00 0.00 78 1007.3
20260506044515 61 308 3.0 6.0 0.00 0.00 0.00 78 1007.3
20260506044012 61 338 3.0 11.0 0.00 0.00 0.00 78 1007.5
20260506043508 61 311 6.0 9.0 0.00 0.00 0.00 78 1007.3
20260506043007 61 1 6.0 9.0 0.00 0.00 0.00 78 1007.3
20260506042506 61 318 5.0 7.0 0.00 0.00 0.00 78 1007.2
20260506042003 62 328 6.0 8.0 0.00 0.00 0.00 77 1007.0
20260506041501 62 279 5.0 9.0 0.00 0.00 0.00 77 1007.1
20260506040958 62 276 4.0 8.0 0.00 0.00 0.00 77 1007.3
20260506040456 62 302 5.0 8.0 0.00 0.00 0.00 76 1007.2
20260506035951 62 342 3.0 9.0 0.00 0.00 0.00 76 1007.1
20260506035449 62 357 4.0 8.0 0.00 0.00 0.00 76 1007.2
20260506034945 62 21 5.0 8.0 0.00 0.00 0.00 75 1007.2
20260506034443 63 282 5.0 8.0 0.00 0.00 0.00 75 1007.1
20260506033940 63 348 6.0 11.0 0.00 0.00 0.00 75 1007.0
20260506033437 63 286 5.0 9.0 0.00 0.00 0.00 75 1006.8
20260506032934 63 308 2.0 9.0 0.00 0.00 0.00 75 1006.8
20260506032431 63 300 5.0 8.0 0.00 0.00 0.00 75 1006.6
20260506031927 63 309 4.0 8.0 0.00 0.00 0.00 75 1006.5
20260506031425 64 291 4.0 11.0 0.00 0.00 0.00 75 1006.1
20260506030922 64 255 2.0 4.0 0.00 0.00 0.00 75 1006.1
20260506030420 64 291 6.0 9.0 0.00 0.00 0.00 75 1006.1
20260506025917 64 286 6.0 10.0 0.00 0.00 0.00 75 1005.8
20260506025414 64 339 4.0 7.0 0.00 0.00 0.00 75 1005.7
20260506024911 64 356 6.0 8.0 0.00 0.00 0.00 75 1006.0
20260506024408 65 319 4.0 7.0 0.00 0.00 0.00 75 1005.5
20260506023904 65 309 4.0 8.0 0.00 0.00 0.00 75 1005.8
20260506023401 65 282 5.0 6.0 0.00 0.00 0.00 76 1005.4
20260506022857 65 350 4.0 8.0 0.00 0.00 0.00 75 1005.3
20260506022355 65 296 4.0 7.0 0.00 0.00 0.00 75 1005.3
20260506021853 65 232 2.0 6.0 0.00 0.00 0.00 75 1005.5
20260506021349 65 292 4.0 6.0 0.00 0.00 0.00 75 1005.4
20260506020846 66 279 4.0 4.0 0.00 0.00 0.00 74 1005.4
20260506020344 66 244 3.0 4.0 0.00 0.00 0.00 74 1005.0
20260506015841 66 271 4.0 6.0 0.00 0.00 0.00 73 1005.1
20260506015339 66 291 2.0 4.0 0.00 0.00 0.00 73 1005.0
20260506014835 66 242 4.0 7.0 0.00 0.00 0.00 73 1004.8
20260506014332 66 259 4.0 6.0 0.00 0.00 0.00 72 1004.5
20260506013829 66 293 6.0 8.0 0.00 0.00 0.00 72 1004.5
20260506013326 66 33 4.0 6.0 0.00 0.00 0.00 73 1004.1
20260506012822 67 245 2.0 4.0 0.00 0.00 0.00 73 1004.0
20260506012320 67 261 5.0 7.0 0.00 0.00 0.00 71 1004.0
20260506011817 67 261 5.0 7.0 0.00 0.00 0.00 71 1004.0
20260506011313 68 291 6.0 9.0 0.00 0.00 0.00 71 1003.6
20260506010811 68 291 6.0 9.0 0.00 0.00 0.00 71 1003.6
20260506010309 68 291 6.0 9.0 0.00 0.00 0.00 71 1003.6
20260506005806 68 283 4.0 11.0 0.00 0.00 0.00 70 1003.5
20260506005305 69 290 6.0 7.0 0.00 0.00 0.00 70 1003.2
20260506004758 70 3 5.0 8.0 0.00 0.00 0.00 70 1002.9
20260506004256 70 312 4.0 10.0 0.00 0.00 0.00 70 1002.8
20260506003752 70 331 6.0 10.0 0.00 0.00 0.00 70 1003.1
20260506003249 70 357 4.0 8.0 0.00 0.00 0.00 69 1003.1
20260506002745 71 191 5.0 9.0 0.00 0.00 0.00 69 1003.1
20260506002241 71 310 6.0 11.0 0.00 0.00 0.00 68 1002.6
20260506001736 71 274 3.0 10.0 0.00 0.00 0.00 69 1002.7
20260506001235 71 359 6.0 9.0 0.00 0.00 0.00 68 1002.9
20260506000731 72 7 4.0 7.0 0.00 0.00 0.00 67 1002.8
20260506000229 72 314 6.0 9.0 0.00 0.00 0.00 67 1002.9
20260505235726 72 9 7.0 13.0 0.00 0.00 0.00 66 1003.1
20260505235224 73 358 5.0 7.0 0.00 0.00 0.00 67 1002.9
20260505234720 73 42 5.0 9.0 0.00 0.00 0.00 66 1002.7
20260505234218 73 303 4.0 10.0 0.00 0.00 0.00 65 1002.8
20260505233714 74 316 8.0 10.0 0.00 0.00 0.00 65 1002.7
20260505233212 74 279 4.0 7.0 0.00 0.00 0.00 65 1002.8
20260505232709 75 342 6.0 7.0 0.00 0.00 0.00 65 1002.6
20260505232207 75 3 6.0 11.0 0.00 0.00 0.00 64 1002.7
20260505231703 75 308 5.0 7.0 0.00 0.00 0.00 63 1002.7
20260505231202 75 317 5.0 9.0 0.00 0.00 0.00 63 1002.6
20260505230700 75 252 6.0 8.0 0.00 0.00 0.00 62 1002.5
20260505230156 76 270 2.0 13.0 0.00 0.00 0.00 61 1002.4
20260505225652 76 356 6.0 8.0 0.00 0.00 0.00 61 1002.5
20260505225149 77 356 8.0 15.0 0.00 0.00 0.00 60 1002.2
20260505224645 77 26 9.0 11.0 0.00 0.00 0.00 60 1002.4
20260505224143 78 238 3.0 6.0 0.00 0.00 0.00 61 1002.3
20260505223640 78 311 3.0 9.0 0.00 0.00 0.00 61 1002.2
20260505223136 79 289 3.0 7.0 0.00 0.00 0.00 61 1002.1
20260505222632 79 255 3.0 8.0 0.00 0.00 0.00 60 1001.8
20260505222129 79 271 4.0 8.0 0.00 0.00 0.00 59 1002.3
20260505221626 80 340 4.0 9.0 0.00 0.00 0.00 60 1002.0
20260505221122 80 262 5.0 8.0 0.00 0.00 0.00 59 1001.8
20260505220620 81 242 1.0 9.0 0.00 0.00 0.00 58 1001.8
20260505220117 81 314 2.0 7.0 0.00 0.00 0.00 59 1001.7
20260505215615 82 247 6.0 9.0 0.00 0.00 0.00 61 1001.7
20260505215113 82 287 3.0 7.0 0.00 0.00 0.00 60 1001.8
20260505214611 84 353 5.0 9.0 0.00 0.00 0.00 58 1001.5
20260505214108 84 257 4.0 7.0 0.00 0.00 0.00 54 1001.6
20260505213605 84 261 3.0 4.0 0.00 0.00 0.00 53 1001.5
20260505213101 85 355 6.0 9.0 0.00 0.00 0.00 49 1001.8
20260505212552 86 321 6.0 8.0 0.00 0.00 0.00 49 1001.9
20260505212050 85 241 4.0 10.0 0.00 0.00 0.00 50 1001.6
20260505211547 85 308 5.0 11.0 0.00 0.00 0.00 48 1001.8
20260505211044 85 315 5.0 11.0 0.00 0.00 0.00 46 1001.7
20260505210540 85 285 3.0 9.0 0.00 0.00 0.00 47 1001.6
20260505210037 86 45 8.0 10.0 0.00 0.00 0.00 45 1001.7
20260505205535 85 332 6.0 11.0 0.00 0.00 0.00 45 1002.2
20260505205032 87 9 4.0 13.0 0.00 0.00 0.00 43 1002.0
20260505204530 87 321 3.0 9.0 0.00 0.00 0.00 45 1002.0
20260505204027 87 319 2.0 8.0 0.00 0.00 0.00 45 1001.9
20260505203523 88 306 5.0 9.0 0.00 0.00 0.00 44 1001.8
20260505203021 91 278 7.0 15.0 0.00 0.00 0.00 41 1001.8
20260505202516 95 267 6.0 16.0 0.00 0.00 0.00 45 1001.5
20260505202012 94 236 8.0 15.0 0.00 0.00 0.00 45 1001.6
20260505201510 93 223 3.0 7.0 0.00 0.00 0.00 48 1001.6
20260505201007 94 227 3.0 6.0 0.00 0.00 0.00 49 1001.7
20260505200505 94 176 4.0 11.0 0.00 0.00 0.00 49 1001.7
20260505200000 93 235 5.0 7.0 0.00 0.00 0.00 53 1001.9
20260505195457 92 194 4.0 7.0 0.00 0.00 0.00 51 1001.9
20260505194955 92 207 5.0 7.0 0.00 0.00 0.00 52 1001.8
20260505194452 93 214 6.0 9.0 0.00 0.00 0.00 50 1002.0
20260505193952 92 228 3.0 7.0 0.00 0.00 0.00 50 1002.2
20260505193450 92 200 5.0 7.0 0.00 0.00 0.00 52 1001.9
20260505192947 91 211 4.0 6.0 0.00 0.00 0.00 52 1002.0
20260505192445 91 211 4.0 8.0 0.00 0.00 0.00 54 1002.1
20260505191942 91 186 5.0 8.0 0.00 0.00 0.00 54 1002.2
20260505191441 91 209 6.0 11.0 0.00 0.00 0.00 53 1002.0
20260505190937 91 232 4.0 9.0 0.00 0.00 0.00 52 1002.0
20260505190433 91 200 4.0 7.0 0.00 0.00 0.00 55 1001.7
20260505185928 90 233 3.0 7.0 0.00 0.00 0.00 56 1002.0
20260505185426 89 201 6.0 9.0 0.00 0.00 0.00 56 1001.8
20260505184922 89 195 6.0 9.0 0.00 0.00 0.00 55 1001.8
20260505184419 88 194 6.0 7.0 0.00 0.00 0.00 58 1001.9
20260505183916 88 194 6.0 7.0 0.00 0.00 0.00 58 1001.9
20260505183413 87 230 4.0 8.0 0.00 0.00 0.00 58 1001.9
20260505182909 87 230 4.0 8.0 0.00 0.00 0.00 58 1001.9
20260505182406 87 190 6.0 10.0 0.00 0.00 0.00 57 1001.8
20260505181902 87 235 3.0 8.0 0.00 0.00 0.00 58 1002.0
20260505181400 87 210 5.0 8.0 0.00 0.00 0.00 58 1002.1
20260505180857 87 204 4.0 13.0 0.00 0.00 0.00 58 1001.8
20260505180353 87 193 2.0 9.0 0.00 0.00 0.00 57 1002.2
20260505175850 87 183 4.0 8.0 0.00 0.00 0.00 59 1002.2
20260505175346 86 193 6.0 9.0 0.00 0.00 0.00 58 1002.1
20260505174843 87 194 4.0 7.0 0.00 0.00 0.00 57 1002.1
20260505174340 88 200 8.0 9.0 0.00 0.00 0.00 56 1002.2
20260505173836 87 216 4.0 11.0 0.00 0.00 0.00 59 1001.8
20260505173333 87 238 6.0 11.0 0.00 0.00 0.00 58 1002.0
20260505172830 87 212 6.0 10.0 0.00 0.00 0.00 57 1001.9
20260505172328 87 214 5.0 13.0 0.00 0.00 0.00 57 1002.1
20260505171822 87 194 4.0 13.0 0.00 0.00 0.00 56 1002.1
20260505171319 88 183 4.0 9.0 0.00 0.00 0.00 57 1001.8
20260505170815 87 207 1.0 6.0 0.00 0.00 0.00 60 1001.8
20260505170313 87 221 3.0 9.0 0.00 0.00 0.00 60 1002.0
20260505165808 86 202 3.0 6.0 0.00 0.00 0.00 61 1002.0
20260505165306 86 195 4.0 6.0 0.00 0.00 0.00 60 1001.9
20260505164759 86 189 2.0 7.0 0.00 0.00 0.00 62 1002.2
20260505164257 85 208 3.0 7.0 0.00 0.00 0.00 63 1002.1
20260505163755 84 201 5.0 8.0 0.00 0.00 0.00 65 1002.1
20260505163253 83 207 4.0 4.0 0.00 0.00 0.00 65 1001.9
20260505162750 82 203 4.0 7.0 0.00 0.00 0.00 68 1002.1
20260505162247 82 209 3.0 11.0 0.00 0.00 0.00 67 1002.1
20260505161744 82 215 3.0 7.0 0.00 0.00 0.00 67 1002.2
20260505161242 82 194 3.0 7.0 0.00 0.00 0.00 68 1001.9
20260505160739 82 200 3.0 6.0 0.00 0.00 0.00 66 1002.0
20260505160237 82 229 2.0 4.0 0.00 0.00 0.00 66 1001.8
20260505153216 78 200 4.0 7.0 0.00 0.00 0.00 73 1001.9
20260505152713 77 187 4.0 8.0 0.00 0.00 0.00 74 1001.7
20260505152208 77 210 3.0 6.0 0.00 0.00 0.00 75 1001.7
20260505151703 76 194 5.0 7.0 0.00 0.00 0.00 75 1001.5
20260505151201 76 200 4.0 8.0 0.00 0.00 0.00 75 1001.5
20260505150656 76 182 5.0 7.0 0.00 0.00 0.00 75 1001.8
20260505150154 76 203 5.0 10.0 0.00 0.00 0.00 75 1001.6
20260505140623 74 203 5.0 7.0 0.00 0.00 0.00 77 1001.4
20260505140120 74 201 3.0 7.0 0.00 0.00 0.00 77 1001.6
20260505125036 70 213 3.0 7.0 0.00 0.00 0.00 83 1001.0
20260505124533 70 225 2.0 7.0 0.00 0.00 0.00 83 1000.8
20260505124029 70 199 5.0 10.0 0.00 0.00 0.00 83 1000.9
20260505123526 70 215 2.0 7.0 0.00 0.00 0.00 83 1001.0
20260505123022 70 204 3.0 4.0 0.00 0.00 0.00 84 1000.7
20260505122519 70 200 5.0 7.0 0.00 0.00 0.00 83 1000.6
20260505122016 70 206 2.0 7.0 0.00 0.00 0.00 83 1000.6
20260505121512 70 198 2.0 3.0 0.00 0.00 0.00 84 1000.6
20260505121009 69 215 4.0 8.0 0.00 0.00 0.00 84 1000.5
20260505120506 69 219 3.0 7.0 0.00 0.00 0.00 84 1000.4
20260505120006 69 235 3.0 6.0 0.00 0.00 0.00 84 1000.5
20260505115501 69 190 3.0 8.0 0.00 0.00 0.00 84 1000.5
20260505114959 69 215 4.0 9.0 0.00 0.00 0.00 84 1000.5
20260505114455 69 228 3.0 4.0 0.00 0.00 0.00 84 1000.5
20260505113952 69 177 3.0 7.0 0.00 0.00 0.00 83 1000.4
20260505113448 69 208 4.0 7.0 0.00 0.00 0.00 83 1000.4
20260505112943 69 191 3.0 4.0 0.00 0.00 0.00 83 1000.4
20260505112441 69 204 4.0 9.0 0.00 0.00 0.00 83 1000.2
20260505111937 70 203 2.0 6.0 0.00 0.00 0.00 83 1000.4
20260505111432 70 224 2.0 10.0 0.00 0.00 0.00 83 1000.0
20260505110929 69 190 6.0 13.0 0.00 0.00 0.00 83 1000.2
20260505110425 69 228 2.0 7.0 0.00 0.00 0.00 83 1000.3
20260505101856 70 175 3.0 4.0 0.00 0.00 0.00 82 1000.3
20260505101351 70 175 3.0 4.0 0.00 0.00 0.00 82 1000.3
20260505100847 70 215 2.0 6.0 0.00 0.00 0.00 82 1000.4
20260505100344 70 185 4.0 7.0 0.00 0.00 0.00 82 1000.5
20260505095839 70 222 4.0 6.0 0.00 0.00 0.00 82 1000.2
20260505095337 70 211 2.0 7.0 0.00 0.00 0.00 82 1000.2
20260505094833 70 204 3.0 7.0 0.00 0.00 0.00 82 1000.3
20260505094330 70 249 2.0 6.0 0.00 0.00 0.00 82 1000.3
20260505093825 70 179 2.0 4.0 0.00 0.00 0.00 82 1000.4
20260505093324 70 213 2.0 6.0 0.00 0.00 0.00 81 1000.5
20260505092820 70 178 4.0 4.0 0.00 0.00 0.00 81 1000.4
20260505092319 70 184 2.0 4.0 0.00 0.00 0.00 81 1000.5
20260505091815 70 196 2.0 4.0 0.00 0.00 0.00 80 1000.4
20260505091314 71 192 3.0 4.0 0.00 0.00 0.00 80 1000.5
20260505090811 71 189 2.0 7.0 0.00 0.00 0.00 80 1000.4
20260505090309 71 218 2.0 4.0 0.00 0.00 0.00 79 1000.6
20260505085806 71 208 3.0 7.0 0.00 0.00 0.00 79 1000.4
20260505085305 71 188 3.0 4.0 0.00 0.00 0.00 79 1000.5
20260505084801 71 206 2.0 8.0 0.00 0.00 0.00 79 1000.8
20260505084300 71 203 1.0 4.0 0.00 0.00 0.00 79 1000.7
20260505083757 71 232 2.0 8.0 0.00 0.00 0.00 79 1000.7
20260505083253 71 209 2.0 6.0 0.00 0.00 0.00 79 1000.8
20260505082750 71 195 2.0 7.0 0.00 0.00 0.00 78 1000.7
20260505082247 71 196 4.0 8.0 0.00 0.00 0.00 78 1000.7
20260505081743 71 188 2.0 7.0 0.00 0.00 0.00 78 1001.1
20260505081240 71 192 2.0 4.0 0.00 0.00 0.00 78 1001.0
20260505080737 71 195 2.0 6.0 0.00 0.00 0.00 78 1000.9
20260505080232 71 177 3.0 7.0 0.00 0.00 0.00 77 1000.8
20260505075728 71 209 2.0 7.0 0.00 0.00 0.00 77 1000.7
20260505075226 71 188 3.0 6.0 0.00 0.00 0.00 77 1000.8
20260505074723 72 212 4.0 7.0 0.00 0.00 0.00 77 1000.7
20260505074220 72 175 3.0 7.0 0.00 0.00 0.00 77 1000.9
20260505073718 72 211 2.0 6.0 0.00 0.00 0.00 76 1000.9
20260505073215 72 218 4.0 6.0 0.00 0.00 0.00 76 1001.1
20260505072711 72 194 2.0 6.0 0.00 0.00 0.00 75 1001.4
20260505072208 73 180 3.0 6.0 0.00 0.00 0.00 75 1001.4
20260505071703 73 227 3.0 6.0 0.00 0.00 0.00 74 1001.2
20260505071201 73 213 5.0 9.0 0.00 0.00 0.00 74 1001.6
20260505070658 73 220 3.0 7.0 0.00 0.00 0.00 74 1001.9
20260505070154 73 192 2.0 8.0 0.00 0.00 0.00 74 1001.7
20260505065650 73 205 3.0 10.0 0.00 0.00 0.00 74 1001.6